Location: Newark
(6.0333°S, 36.1333°E)
Time: 06:34:17
(UTC+00:00)

Envisat - Visible Passes

Search period start: 18 November 2019 00:00
Search period end: 28 November 2019 00:00
Orbit: 764 x 766 km, 98.1° (Epoch: 17 November)

Date Brightness Start Highest point End Pass type
(mag) Time Alt. Az. Time Alt. Az. Time Alt. Az.
18 Nov 2.9 16:00:07 10° SSE 16:05:12 74° ENE 16:10:15 10° N visible
19 Nov 5.7 17:03:43 10° SSW 17:07:14 19° WSW 17:10:44 10° WNW visible
20 Nov 3.9 16:25:40 10° S 16:30:37 53° WSW 16:35:33 10° NNW visible
21 Nov 3.1 15:48:59 10° SSE 15:53:57 53° ENE 15:58:52 10° N visible
22 Nov 5.3 16:51:52 10° SSW 16:56:00 25° WSW 17:00:09 10° NW visible
23 Nov 3.3 16:14:19 10° S 16:19:23 73° WSW 16:24:25 10° NNW visible
24 Nov 6.2 17:19:26 10° SW 17:21:21 12° WSW 17:23:17 10° W visible
25 Nov 4.8 16:40:12 10° SSW 16:44:47 34° WSW 16:49:21 10° NW visible
26 Nov 3.0 16:03:02 10° SSE 16:08:08 83° ENE 16:13:11 10° N visible
27 Nov 5.9 17:06:58 10° SW 17:10:09 17° WSW 17:13:20 10° WNW visible
